• In Uzbekistan
  • List of Countries
  • For 7 days
  • Water Temperature
  • Satellite Maps
  • Weather Map
  • Weather Widgets
  • user-avatar
    Login

    Hourly Weather Naftalan

    Today, 9 December, Friday

    Time Temperature Precipitation Wind Pressure Humidity
    00:00 0°C° 0 mm 1 mps 777 mmHg 79%
    01:00 0°C° 0 mm 1 mps 776 mmHg 79%
    02:00 0°C° 0 mm 1 mps 775 mmHg 78%
    03:00 -2°C° 0 mm 2 mps 774 mmHg 79%
    04:00 -2°C° 0 mm 2 mps 774 mmHg 78%
    05:00 -2°C° 0 mm 3 mps 773 mmHg 77%
    06:00 -2°C° 0 mm 3 mps 772 mmHg 76%
    07:00 -2°C° 0 mm 4 mps 771 mmHg 71%
    08:00 -2°C° 0 mm 4 mps 771 mmHg 66%
    09:00 -1°C° 0 mm 5 mps 769 mmHg 57%
    10:00 0°C° 0 mm 5 mps 769 mmHg 54%
    11:00 +2°C° 0 mm 5 mps 768 mmHg 50%
    12:00 +3°C° 0 mm 5 mps 767 mmHg 47%
    13:00 +3°C° 0 mm 5 mps 767 mmHg 49%
    14:00 +3°C° 0 mm 5 mps 766 mmHg 51%
    15:00 +3°C° 0 mm 5 mps 766 mmHg 52%
    16:00 +2°C° 0 mm 5 mps 766 mmHg 53%
    17:00 +1°C° 0 mm 6 mps 766 mmHg 54%
    18:00 -1°C° 0 mm 6 mps 766 mmHg 55%
    19:00 -1°C° 0 mm 7 mps 766 mmHg 54%
    20:00 -1°C° 0 mm 7 mps 766 mmHg 52%
    21:00 -1°C° 0 mm 8 mps 766 mmHg 51%
    22:00 -1°C° 0 mm 8 mps 766 mmHg 51%
    23:00 -1°C° 0 mm 8 mps 766 mmHg 52%

    Tomorrow, 10 December, Saturday

    Time Temperature Precipitation Wind Pressure Humidity
    00:00 -1°C° 0 mm 8 mps 766 mmHg 53%
    01:00 -1°C° 0 mm 8 mps 766 mmHg 54%
    02:00 -1°C° 0 mm 7 mps 765 mmHg 54%
    03:00 -1°C° 0 mm 7 mps 765 mmHg 55%
    04:00 -1°C° 0 mm 6 mps 765 mmHg 55%
    05:00 -1°C° 0 mm 6 mps 765 mmHg 55%
    06:00 -1°C° 0 mm 6 mps 765 mmHg 56%
    07:00 +1°C° 0 mm 5 mps 764 mmHg 54%
    08:00 +2°C° 0 mm 5 mps 764 mmHg 53%
    09:00 +3°C° 0 mm 5 mps 764 mmHg 52%
    10:00 +6°C° 0 mm 4 mps 764 mmHg 50%
    11:00 +7°C° 0 mm 4 mps 763 mmHg 48%
    12:00 +10°C° 0 mm 4 mps 763 mmHg 46%
    13:00 +9°C° 0 mm 3 mps 762 mmHg 48%
    14:00 +9°C° 0 mm 3 mps 762 mmHg 49%
    15:00 +9°C° 0 mm 3 mps 762 mmHg 51%
    16:00 +8°C° 0 mm 3 mps 762 mmHg 54%
    17:00 +5°C° 0 mm 3 mps 762 mmHg 57%
    18:00 +4°C° 0 mm 3 mps 761 mmHg 60%
    19:00 +4°C° 0 mm 3 mps 761 mmHg 58%
    20:00 +5°C° 0 mm 4 mps 761 mmHg 57%
    21:00 +5°C° 0 mm 4 mps 761 mmHg 55%
    22:00 +5°C° 0 mm 5 mps 761 mmHg 56%
    23:00 +5°C° 0 mm 5 mps 762 mmHg 56%

    Day after tomorrow, 11 December, Sunday

    Time Temperature Precipitation Wind Pressure Humidity
    00:00 +4°C° 0 mm 6 mps 762 mmHg 57%
    01:00 +4°C° 0 mm 6 mps 762 mmHg 59%
    02:00 +4°C° 0 mm 6 mps 762 mmHg 60%
    03:00 +5°C° 0 mm 5 mps 763 mmHg 62%
    04:00 +3°C° 0 mm 5 mps 763 mmHg 64%
    05:00 +3°C° 0 mm 4 mps 763 mmHg 65%
    06:00 +3°C° 0 mm 4 mps 764 mmHg 67%
    07:00 +4°C° 0 mm 3 mps 764 mmHg 64%
    08:00 +6°C° 0 mm 2 mps 765 mmHg 61%
    09:00 +7°C° 0 mm 2 mps 765 mmHg 58%
    10:00 +8°C° 0 mm 2 mps 765 mmHg 54%
    11:00 +10°C° 0 mm 2 mps 765 mmHg 51%
    12:00 +12°C° 0 mm 2 mps 764 mmHg 48%
    13:00 +12°C° 0 mm 2 mps 764 mmHg 50%
    14:00 +12°C° 0 mm 2 mps 764 mmHg 52%
    15:00 +11°C° 0 mm 1 mps 764 mmHg 54%
    16:00 +10°C° 0 mm 1 mps 764 mmHg 58%
    17:00 +9°C° 0 mm 1 mps 764 mmHg 62%
    18:00 +7°C° 0 mm 1 mps 764 mmHg 67%
    19:00 +6°C° 0 mm 2 mps 764 mmHg 67%
    20:00 +6°C° 0 mm 2 mps 764 mmHg 68%
    21:00 +4°C° 0 mm 3 mps 764 mmHg 68%
    22:00 +4°C° 0 mm 3 mps 764 mmHg 68%
    23:00 +4°C° 0 mm 3 mps 764 mmHg 68%

    12 December, Monday

    Time Temperature Precipitation Wind Pressure Humidity
    00:00 +4°C° 0 mm 3 mps 764 mmHg 68%
    01:00 +4°C° 0 mm 4 mps 764 mmHg 68%
    02:00 +4°C° 0 mm 4 mps 764 mmHg 67%
    03:00 +3°C° 0 mm 5 mps 764 mmHg 67%
    04:00 +3°C° 0 mm 5 mps 764 mmHg 67%
    05:00 +4°C° 0 mm 4 mps 764 mmHg 67%
    06:00 +4°C° 0 mm 4 mps 764 mmHg 67%
    07:00 +5°C° 0 mm 4 mps 765 mmHg 63%
    08:00 +6°C° 0 mm 4 mps 765 mmHg 58%
    09:00 +8°C° 0 mm 3 mps 765 mmHg 54%
    10:00 +10°C° 0 mm 3 mps 764 mmHg 51%
    11:00 +11°C° 0 mm 3 mps 764 mmHg 48%
    12:00 +13°C° 0 mm 3 mps 763 mmHg 45%
    13:00 +13°C° 0 mm 2 mps 763 mmHg 47%
    14:00 +13°C° 0 mm 2 mps 762 mmHg 49%
    15:00 +13°C° 0 mm 2 mps 761 mmHg 51%
    16:00 +10°C° 0 mm 2 mps 761 mmHg 56%
    17:00 +9°C° 0 mm 2 mps 761 mmHg 62%
    18:00 +7°C° 0 mm 2 mps 761 mmHg 67%
    19:00 +7°C° 0 mm 3 mps 761 mmHg 70%
    20:00 +7°C° 0 mm 3 mps 761 mmHg 72%
    21:00 +7°C° 0 mm 3 mps 760 mmHg 74%
    22:00 +7°C° 0 mm 3 mps 760 mmHg 70%
    23:00 +7°C° 0 mm 3 mps 760 mmHg 65%

    13 December, Tuesday

    Time Temperature Precipitation Wind Pressure Humidity
    00:00 +7°C° 0 mm 3 mps 760 mmHg 61%
    01:00 +7°C° 0 mm 3 mps 759 mmHg 60%
    02:00 +6°C° 0 mm 4 mps 759 mmHg 60%
    03:00 +6°C° 0 mm 4 mps 759 mmHg 59%
    04:00 +6°C° 0 mm 4 mps 759 mmHg 58%
    05:00 +6°C° 0 mm 4 mps 759 mmHg 57%
    06:00 +6°C° 0 mm 4 mps 759 mmHg 56%
    07:00 +7°C° 0 mm 4 mps 759 mmHg 55%
    08:00 +8°C° 0 mm 4 mps 760 mmHg 55%
    09:00 +10°C° 0 mm 4 mps 760 mmHg 54%
    10:00 +11°C° 0 mm 4 mps 760 mmHg 50%
    11:00 +13°C° 0 mm 4 mps 759 mmHg 47%
    12:00 +14°C° 0 mm 4 mps 759 mmHg 43%
    13:00 +14°C° 0 mm 3 mps 759 mmHg 45%
    14:00 +15°C° 0 mm 2 mps 759 mmHg 47%
    15:00 +15°C° 0 mm 2 mps 758 mmHg 48%
    16:00 +13°C° 0 mm 2 mps 759 mmHg 52%
    17:00 +11°C° 0 mm 1 mps 759 mmHg 56%
    18:00 +10°C° 0 mm 1 mps 759 mmHg 60%
    19:00 +9°C° 0 mm 1 mps 759 mmHg 61%
    20:00 +9°C° 0 mm 1 mps 759 mmHg 62%
    21:00 +8°C° 0 mm 2 mps 759 mmHg 64%
    22:00 +8°C° 0 mm 1 mps 759 mmHg 64%
    23:00 +8°C° 0 mm 1 mps 759 mmHg 65%

    14 December, Wednesday

    Time Temperature Precipitation Wind Pressure Humidity
    00:00 +8°C° 0 mm 1 mps 759 mmHg 66%
    01:00 +7°C° 0 mm 2 mps 759 mmHg 67%
    02:00 +7°C° 0 mm 3 mps 759 mmHg 67%
    03:00 +5°C° 0 mm 4 mps 759 mmHg 67%
    04:00 +5°C° 0 mm 5 mps 760 mmHg 75%
    05:00 +4°C° 0 mm 6 mps 760 mmHg 83%
    06:00 +4°C° 0 mm 7 mps 761 mmHg 91%
    07:00 +5°C° 0 mm 7 mps 762 mmHg 88%
    08:00 +5°C° 0 mm 7 mps 762 mmHg 86%
    09:00 +6°C° 0 mm 7 mps 763 mmHg 83%
    10:00 +8°C° 0 mm 7 mps 762 mmHg 79%
    11:00 +9°C° 0 mm 7 mps 762 mmHg 75%
    12:00 +9°C° 0 mm 7 mps 762 mmHg 72%
    13:00 +9°C° 0 mm 7 mps 762 mmHg 73%
    14:00 +7°C° 0 mm 8 mps 762 mmHg 75%
    15:00 +7°C° 0 mm 8 mps 762 mmHg 76%
    16:00 +6°C° 0.1 mm 8 mps 763 mmHg 78%
    17:00 +6°C° 0.1 mm 9 mps 763 mmHg 80%
    18:00 +5°C° 0.1 mm 9 mps 763 mmHg 82%
    19:00 +5°C° 0.3 mm 9 mps 763 mmHg 82%
    20:00 +5°C° 0.3 mm 9 mps 764 mmHg 82%
    21:00 +5°C° 0.3 mm 9 mps 764 mmHg 81%
    22:00 +5°C° 0.2 mm 9 mps 764 mmHg 81%
    23:00 +3°C° 0.2 mm 9 mps 763 mmHg 81%
    Show more